ARA Libertad — LOLD — position and weather

sailwx.info

Track history (hours):
 
Tides and Currents Weather Stations Pressure Air Temp Water Temp Dewpoint Dewpoint Depression Visibility Wind Speed Wind Dir Waves Ship Positions

ARA Libertad (Argentina)

Last reported at 2017-Aug-27 08:24 UTC. Time now 2017-Oct-22 19:21 UTC.
Position N 28°33' W 016°29'.
Warning: this ship's position is 56 days out of date.

Length 104 m; draft 6.5 m.

Type: Other ship. MMSI: 701000001.

Date/timePositionNaut miles runAvg speedWind from/ knotsBaromVisibWave heightAir tempDewpointWater temp
2017-Aug-27 08:24N 28°33' W 016°29'511.5
2017-Aug-27 07:56N 28°36' W 016°24'910.9
2017-Aug-27 07:05N 28°38' W 016°14'13 1.7
2017-Aug-26 23:17N 28°28' W 016°05'2 3.2
2017-Aug-26 22:48N 28°27' W 016°06'2 2.9
2017-Aug-26 22:17N 28°26' W 016°07'1 3.0
2017-Aug-26 21:49N 28°25' W 016°09'1 1.8
2017-Aug-26 21:23N 28°25' W 016°09'5 4.2
2017-Aug-26 20:19N 28°27' W 016°14'1 2.7
2017-Aug-26 19:51N 28°28' W 016°15'0 0.2
2017-Aug-26 19:28N 28°28' W 016°15'0 0.0
2017-Aug-26 18:03N 28°28' W 016°15'0 0.1
2017-Aug-26 17:57N 28°28' W 016°15'0 0.0
2017-Aug-26 17:30N 28°28' W 016°15'0 0.0
2017-Aug-26 17:00N 28°28' W 016°15'0 0.0
2017-Aug-26 16:29N 28°28' W 016°15'0 0.0
2017-Aug-26 15:46N 28°28' W 016°15'0 0.0
2017-Aug-26 15:05N 28°28' W 016°15'0 0.0
2017-Aug-26 14:55N 28°28' W 016°15'0 0.0
2017-Aug-26 13:31N 28°28' W 016°15'0 0.0
2017-Aug-26 13:26N 28°28' W 016°15'0 0.0
2017-Aug-26 12:53N 28°28' W 016°15'0 0.0
2017-Aug-26 12:22N 28°28' W 016°15'0 0.0
2017-Aug-26 11:45N 28°28' W 016°15'0 0.0
2017-Aug-26 11:09N 28°28' W 016°15'0 0.0
2017-Aug-26 10:55N 28°28' W 016°15'0 0.0
2017-Aug-26 09:51N 28°28' W 016°15'0 0.0
2017-Aug-26 08:40N 28°28' W 016°15'  
2017-Aug-23 10:05N 28°28' W 016°15'0 0.1
2017-Aug-23 10:00N 28°28' W 016°15'1 1.6
2017-Aug-23 09:30N 28°27' W 016°14'5 0.4
2017-Aug-22 20:05N 28°31' W 016°10'0 0.0
2017-Aug-22 19:53N 28°31' W 016°10'0 0.0
2017-Aug-22 19:11N 28°31' W 016°10'0 0.0
2017-Aug-22 18:56N 28°31' W 016°10'0 0.0
2017-Aug-22 18:26N 28°31' W 016°10'0 0.0
2017-Aug-22 17:44N 28°31' W 016°10'0 0.0
2017-Aug-22 15:59N 28°31' W 016°10'0 0.0
2017-Aug-22 13:59N 28°31' W 016°10'0 0.0
2017-Aug-22 12:29N 28°31' W 016°09'0 0.0
2017-Aug-22 08:53N 28°31' W 016°09'0 0.0
2017-Aug-22 07:08N 28°31' W 016°10'0 0.0
2017-Aug-22 05:38N 28°31' W 016°10'0 0.1
2017-Aug-22 05:11N 28°31' W 016°09'0 0.1
2017-Aug-22 04:56N 28°31' W 016°09'0 0.0
2017-Aug-22 04:11N 28°31' W 016°09'0 0.0
2017-Aug-22 03:56N 28°31' W 016°09'0 0.0
2017-Aug-22 00:32N 28°31' W 016°09'0 0.0
2017-Aug-22 00:29N 28°31' W 016°09'0 0.0
2017-Aug-21 23:55N 28°31' W 016°09'0 0.0
2017-Aug-21 23:30N 28°31' W 016°09'0 0.0
2017-Aug-21 22:52N 28°31' W 016°09'0 0.0
2017-Aug-21 22:25N 28°31' W 016°09'0 0.0
2017-Aug-21 21:57N 28°31' W 016°09'0 0.0
2017-Aug-21 21:21N 28°31' W 016°09'0 0.0
2017-Aug-21 20:55N 28°31' W 016°09'0 0.0
2017-Aug-21 20:19N 28°31' W 016°10'0 0.0
2017-Aug-21 19:54N 28°31' W 016°10'0 0.0
2017-Aug-21 19:30N 28°31' W 016°10'0 0.0
2017-Aug-21 18:52N 28°31' W 016°10'0 0.0
2017-Aug-21 18:12N 28°31' W 016°10'0 0.0
2017-Aug-21 17:53N 28°31' W 016°10'0 0.1
2017-Aug-21 17:28N 28°31' W 016°09'0 0.0
2017-Aug-21 16:59N 28°31' W 016°10'0 0.0
2017-Aug-21 16:30N 28°31' W 016°09'0 0.0
2017-Aug-21 16:00N 28°31' W 016°09'0 0.0
2017-Aug-21 15:29N 28°31' W 016°09'0 0.0
2017-Aug-21 14:59N 28°31' W 016°09'0 0.0
2017-Aug-21 14:27N 28°31' W 016°09'0 0.0
2017-Aug-21 14:00N 28°31' W 016°09'0 0.2
2017-Aug-21 13:30N 28°31' W 016°10'4 8.0
2017-Aug-21 12:59N 28°28' W 016°13'710.0
2017-Aug-21 12:15N 28°22' W 016°17'310.3
2017-Aug-21 12:00N 28°19' W 016°18'610.1
2017-Aug-21 11:23N 28°13' W 016°20'26 2.6
2017-Aug-21 01:33N 27°49' W 016°13'3 5.9
2017-Aug-21 01:06N 27°47' W 016°10'1 5.9
2017-Aug-21 01:00N 27°47' W 016°09'5 6.8
2017-Aug-21 00:12N 27°46' W 016°03'2 7.6
2017-Aug-20 23:59N 27°46' W 016°01'4 7.4
2017-Aug-20 23:28N 27°44' W 015°57'4 7.6
2017-Aug-20 22:52N 27°42' W 015°53'2 5.2
2017-Aug-20 22:24N 27°40' W 015°52'3 7.3
2017-Aug-20 22:00N 27°39' W 015°49'4 7.0
2017-Aug-20 21:26N 27°38' W 015°45'2 4.1
2017-Aug-20 21:00N 27°40' W 015°46'4 1.8
2017-Aug-20 18:49N 27°42' W 015°49'2 2.2
2017-Aug-20 17:45N 27°41' W 015°47'1 6.2
2017-Aug-20 17:30N 27°42' W 015°48'4 0.9
2017-Aug-20 13:31N 27°39' W 015°47'1 7.2
2017-Aug-20 13:24N 27°38' W 015°46'2 2.8
2017-Aug-20 12:37N 27°40' W 015°47'1 6.2
2017-Aug-20 12:23N 27°41' W 015°48'1 0.7
2017-Aug-20 11:09N 27°42' W 015°49'2 7.1
2017-Aug-20 10:55N 27°40' W 015°47'3 6.7
2017-Aug-20 10:25N 27°38' W 015°45'2 4.2
2017-Aug-20 09:58N 27°37' W 015°43'3 6.2
2017-Aug-20 09:28N 27°37' W 015°47'3 5.3
2017-Aug-20 08:48N 27°40' W 015°50'3 3.4
2017-Aug-20 07:55N 27°40' W 015°46'3 7.5
2017-Aug-20 07:28N 27°38' W 015°43'5 7.3
2017-Aug-20 06:46N 27°35' W 015°39'31 7.4
2017-Aug-20 02:33N 27°43' W 015°05'2 8.0
2017-Aug-20 02:16N 27°44' W 015°02'2 7.8
2017-Aug-20 01:58N 27°45' W 014°60'5 7.7
2017-Aug-20 01:19N 27°47' W 014°55'4 7.5
2017-Aug-20 00:49N 27°48' W 014°51'21 6.9
2017-Aug-19 21:48N 27°55' W 014°28'3 5.9
2017-Aug-19 21:17N 27°56' W 014°25'4 5.6
2017-Aug-19 20:40N 27°57' W 014°22'1 5.8
2017-Aug-19 20:30N 27°58' W 014°21'17 6.6
2017-Aug-19 17:52N 28°07' W 014°04'36 7.9
2017-Aug-19 13:21N 28°38' W 013°45'511.3
2017-Aug-19 12:54N 28°43' W 013°45'410.9
2017-Aug-19 12:30N 28°48' W 013°43'610.2
2017-Aug-19 11:56N 28°51' W 013°39'511.2
2017-Aug-19 11:30N 28°54' W 013°34'612.3
2017-Aug-19 11:00N 28°57' W 013°28'611.8
2017-Aug-19 10:30N 29°00' W 013°22'5312.0
2017-Aug-19 06:02N 29°41' W 012°43'112.1
2017-Aug-19 06:00N 29°42' W 012°42'812.4
2017-Aug-19 05:22N 29°48' W 012°36'512.4
2017-Aug-19 05:00N 29°51' W 012°33'51311.6
2017-Aug-17 08:49N 35°59' W 005°27'411.4
2017-Aug-17 08:30N 36°00' W 005°23'  
Track history (hours):
 
Tides and Currents Weather Stations Pressure Air Temp Water Temp Dewpoint Dewpoint Depression Visibility Wind Speed Wind Dir Waves Ship Positions

ARA Libertad (Argentina)

Last reported at 2017-Aug-27 08:24 UTC. Time now 2017-Oct-22 19:21 UTC.
Position N 28°33' W 016°29'.
Warning: this ship's position is 56 days out of date.

Length 104 m; draft 6.5 m.

Type: Other ship. MMSI: 701000001.

Date/timePositionNaut miles runAvg speedWind from/ knotsBaromVisibWave heightAir tempDewpointWater temp
2017-Aug-27 08:24N 28°33' W 016°29'511.5
2017-Aug-27 07:56N 28°36' W 016°24'910.9
2017-Aug-27 07:05N 28°38' W 016°14'13 1.7
2017-Aug-26 23:17N 28°28' W 016°05'2 3.2
2017-Aug-26 22:48N 28°27' W 016°06'2 2.9
2017-Aug-26 22:17N 28°26' W 016°07'1 3.0
2017-Aug-26 21:49N 28°25' W 016°09'1 1.8
2017-Aug-26 21:23N 28°25' W 016°09'5 4.2
2017-Aug-26 20:19N 28°27' W 016°14'1 2.7
2017-Aug-26 19:51N 28°28' W 016°15'0 0.2
2017-Aug-26 19:28N 28°28' W 016°15'0 0.0
2017-Aug-26 18:03N 28°28' W 016°15'0 0.1
2017-Aug-26 17:57N 28°28' W 016°15'0 0.0
2017-Aug-26 17:30N 28°28' W 016°15'0 0.0
2017-Aug-26 17:00N 28°28' W 016°15'0 0.0
2017-Aug-26 16:29N 28°28' W 016°15'0 0.0
2017-Aug-26 15:46N 28°28' W 016°15'0 0.0
2017-Aug-26 15:05N 28°28' W 016°15'0 0.0
2017-Aug-26 14:55N 28°28' W 016°15'0 0.0
2017-Aug-26 13:31N 28°28' W 016°15'0 0.0
2017-Aug-26 13:26N 28°28' W 016°15'0 0.0
2017-Aug-26 12:53N 28°28' W 016°15'0 0.0
2017-Aug-26 12:22N 28°28' W 016°15'0 0.0
2017-Aug-26 11:45N 28°28' W 016°15'0 0.0
2017-Aug-26 11:09N 28°28' W 016°15'0 0.0
2017-Aug-26 10:55N 28°28' W 016°15'0 0.0
2017-Aug-26 09:51N 28°28' W 016°15'0 0.0
2017-Aug-26 08:40N 28°28' W 016°15'  
2017-Aug-23 10:05N 28°28' W 016°15'0 0.1
2017-Aug-23 10:00N 28°28' W 016°15'1 1.6
2017-Aug-23 09:30N 28°27' W 016°14'5 0.4
2017-Aug-22 20:05N 28°31' W 016°10'0 0.0
2017-Aug-22 19:53N 28°31' W 016°10'0 0.0
2017-Aug-22 19:11N 28°31' W 016°10'0 0.0
2017-Aug-22 18:56N 28°31' W 016°10'0 0.0
2017-Aug-22 18:26N 28°31' W 016°10'0 0.0
2017-Aug-22 17:44N 28°31' W 016°10'0 0.0
2017-Aug-22 15:59N 28°31' W 016°10'0 0.0
2017-Aug-22 13:59N 28°31' W 016°10'0 0.0
2017-Aug-22 12:29N 28°31' W 016°09'0 0.0
2017-Aug-22 08:53N 28°31' W 016°09'0 0.0
2017-Aug-22 07:08N 28°31' W 016°10'0 0.0
2017-Aug-22 05:38N 28°31' W 016°10'0 0.1
2017-Aug-22 05:11N 28°31' W 016°09'0 0.1
2017-Aug-22 04:56N 28°31' W 016°09'0 0.0
2017-Aug-22 04:11N 28°31' W 016°09'0 0.0
2017-Aug-22 03:56N 28°31' W 016°09'0 0.0
2017-Aug-22 00:32N 28°31' W 016°09'0 0.0
2017-Aug-22 00:29N 28°31' W 016°09'0 0.0
2017-Aug-21 23:55N 28°31' W 016°09'0 0.0
2017-Aug-21 23:30N 28°31' W 016°09'0 0.0
2017-Aug-21 22:52N 28°31' W 016°09'0 0.0
2017-Aug-21 22:25N 28°31' W 016°09'0 0.0
2017-Aug-21 21:57N 28°31' W 016°09'0 0.0
2017-Aug-21 21:21N 28°31' W 016°09'0 0.0
2017-Aug-21 20:55N 28°31' W 016°09'0 0.0
2017-Aug-21 20:19N 28°31' W 016°10'0 0.0
2017-Aug-21 19:54N 28°31' W 016°10'0 0.0
2017-Aug-21 19:30N 28°31' W 016°10'0 0.0
2017-Aug-21 18:52N 28°31' W 016°10'0 0.0
2017-Aug-21 18:12N 28°31' W 016°10'0 0.0
2017-Aug-21 17:53N 28°31' W 016°10'0 0.1
2017-Aug-21 17:28N 28°31' W 016°09'0 0.0
2017-Aug-21 16:59N 28°31' W 016°10'0 0.0
2017-Aug-21 16:30N 28°31' W 016°09'0 0.0
2017-Aug-21 16:00N 28°31' W 016°09'0 0.0
2017-Aug-21 15:29N 28°31' W 016°09'0 0.0
2017-Aug-21 14:59N 28°31' W 016°09'0 0.0
2017-Aug-21 14:27N 28°31' W 016°09'0 0.0
2017-Aug-21 14:00N 28°31' W 016°09'0 0.2
2017-Aug-21 13:30N 28°31' W 016°10'4 8.0
2017-Aug-21 12:59N 28°28' W 016°13'710.0
2017-Aug-21 12:15N 28°22' W 016°17'310.3
2017-Aug-21 12:00N 28°19' W 016°18'610.1
2017-Aug-21 11:23N 28°13' W 016°20'26 2.6
2017-Aug-21 01:33N 27°49' W 016°13'3 5.9
2017-Aug-21 01:06N 27°47' W 016°10'1 5.9
2017-Aug-21 01:00N 27°47' W 016°09'5 6.8
2017-Aug-21 00:12N 27°46' W 016°03'2 7.6
2017-Aug-20 23:59N 27°46' W 016°01'4 7.4
2017-Aug-20 23:28N 27°44' W 015°57'4 7.6
2017-Aug-20 22:52N 27°42' W 015°53'2 5.2
2017-Aug-20 22:24N 27°40' W 015°52'3 7.3
2017-Aug-20 22:00N 27°39' W 015°49'4 7.0
2017-Aug-20 21:26N 27°38' W 015°45'2 4.1
2017-Aug-20 21:00N 27°40' W 015°46'4 1.8
2017-Aug-20 18:49N 27°42' W 015°49'2 2.2
2017-Aug-20 17:45N 27°41' W 015°47'1 6.2
2017-Aug-20 17:30N 27°42' W 015°48'4 0.9
2017-Aug-20 13:31N 27°39' W 015°47'1 7.2
2017-Aug-20 13:24N 27°38' W 015°46'2 2.8
2017-Aug-20 12:37N 27°40' W 015°47'1 6.2
2017-Aug-20 12:23N 27°41' W 015°48'1 0.7
2017-Aug-20 11:09N 27°42' W 015°49'2 7.1
2017-Aug-20 10:55N 27°40' W 015°47'3 6.7
2017-Aug-20 10:25N 27°38' W 015°45'2 4.2
2017-Aug-20 09:58N 27°37' W 015°43'3 6.2
2017-Aug-20 09:28N 27°37' W 015°47'3 5.3
2017-Aug-20 08:48N 27°40' W 015°50'3 3.4
2017-Aug-20 07:55N 27°40' W 015°46'3 7.5
2017-Aug-20 07:28N 27°38' W 015°43'5 7.3
2017-Aug-20 06:46N 27°35' W 015°39'31 7.4
2017-Aug-20 02:33N 27°43' W 015°05'2 8.0
2017-Aug-20 02:16N 27°44' W 015°02'2 7.8
2017-Aug-20 01:58N 27°45' W 014°60'5 7.7
2017-Aug-20 01:19N 27°47' W 014°55'4 7.5
2017-Aug-20 00:49N 27°48' W 014°51'21 6.9
2017-Aug-19 21:48N 27°55' W 014°28'3 5.9
2017-Aug-19 21:17N 27°56' W 014°25'4 5.6
2017-Aug-19 20:40N 27°57' W 014°22'1 5.8
2017-Aug-19 20:30N 27°58' W 014°21'17 6.6
2017-Aug-19 17:52N 28°07' W 014°04'36 7.9
2017-Aug-19 13:21N 28°38' W 013°45'511.3
2017-Aug-19 12:54N 28°43' W 013°45'410.9
2017-Aug-19 12:30N 28°48' W 013°43'610.2
2017-Aug-19 11:56N 28°51' W 013°39'511.2
2017-Aug-19 11:30N 28°54' W 013°34'612.3
2017-Aug-19 11:00N 28°57' W 013°28'611.8
2017-Aug-19 10:30N 29°00' W 013°22'5312.0
2017-Aug-19 06:02N 29°41' W 012°43'112.1
2017-Aug-19 06:00N 29°42' W 012°42'812.4
2017-Aug-19 05:22N 29°48' W 012°36'512.4
2017-Aug-19 05:00N 29°51' W 012°33'51311.6
2017-Aug-17 08:49N 35°59' W 005°27'411.4
2017-Aug-17 08:30N 36°00' W 005°23'  

Dump ship's entire track history